Regional Weather Roundup
Issued by NWS

Home | Current Version | Previous Version | Text Only | Print | Product List | Glossary Off
Versions: 1 2 3 4 5 6 7 8 9 10 11 12 13 14 15 16 17 18 19 20 21 22 23 24 25 26 27 28 29 30 31 32 33 34 35 36 37 38 39 40 41 42 43 44 45 46 47 48 49 50

000
ASUS44 KMEG 011900
RWRTN
TENNESSEE HOURLY STATE WEATHER ROUNDUP
NATIONAL WEATHER SERVICE MEMPHIS TN
200 PM CDT MON SEP 01 2014

TNZ002-004-019-021-049-052-054-088>092-012000-
WEST TENNESSEE

CITY           SKY/WX    TMP DP  RH WIND       PRES   REMARKS
MEMPHIS INTL   MOSUNNY   88  75  65 SW8       30.03F HX  97
NWS MEMPHIS      N/A     89 N/A N/A MISG        N/A
JACKSON        MOSUNNY   89  73  59 S12G17    30.03F HX  97
DYERSBURG      PTSUNNY   88  68  51 SW14      30.01F HX  91
UNION CITY     SUNNY     82  73  74 SW8       30.00S
PARIS          SUNNY     81  73  78 SW10      30.03S
SAVANNAH       MOSUNNY   90  73  58 SW10      30.06F HX  98
$$

TNZ008-025-027-028-033-062-065-066-012000-
NORTH MIDDLE TENNESSEE

CITY           SKY/WX    TMP DP  RH WIND       PRES   REMARKS
NASHVILLE      PTSUNNY   91  68  46 SW16G23   30.04F HX  95
CLARKSVILLE    CLOUDY    85  71  63 SW15G24   30.01F HX  90
COOKEVILLE     MOSUNNY   90  73  58 SW10      30.08F HX  98
CROSSVILLE     MOSUNNY   85  67  54 SW10G16   30.14F
$$

TNZ061-075-076-078-094-096-097-012000-
SOUTH MIDDLE TENNESSEE

CITY           SKY/WX    TMP DP  RH WIND       PRES   REMARKS
FAYETTEVILLE   MOSUNNY   86  66  51 SW8       30.10F
TULLAHOMA      SUNNY     88  70  55 S10       30.11F HX  92
WINCHESTER     MOSUNNY   88  72  58 SW7       30.10F HX  94
SHELBYVILLE    SUNNY     91  72  52 S12       30.09F HX  98
$$

TNZ017-018-042-046-047-012000-
NORTHEAST TENNESSEE

CITY           SKY/WX    TMP DP  RH WIND       PRES   REMARKS
TRI CITIES     MOSUNNY   87  65  47 SW10      30.13F
ELIZABETHTON   PTCLDY    84  66  54 SW8       30.13F
$$

TNZ012-013-036-069-073-074-012000-
CENTRAL EAST TENNESSEE

CITY           SKY/WX    TMP DP  RH WIND       PRES   REMARKS
KNOXVILLE      MOSUNNY   88  71  57 W9        30.08F HX  94
OAK RIDGE      MOSUNNY   90  69  50 SW10      30.10F HX  94
GATLINBURG     CLEAR     91  66  43 SW9       30.08F HX  94
$$

TNZ083-085-099-012000-
SOUTHEAST TENNESSEE

CITY           SKY/WX    TMP DP  RH WIND       PRES   REMARKS
CHATTANOOGA    PTSUNNY   90  69  50 VRB6      30.08F HX  94
$$

SKY/WX REPORTED AS FAIR MEANS FEW OR NO CLOUDS BELOW
12 THOUSAND FEET.




USA.gov is the U.S. government's official web portal to all federal, state and local government web resources and services.